Content
SEND FEEDBACK

Daily
Averages
Monthly
Summary
United States of America

MAURICEVILLE, TEXAS


Home > North America > United States > Texas
Elevation: 20 feet     Latitude: 30 14N     Longitude: 093 44W

WEATHER
 
SELECT A DAY
Number of Records: 115,423;   Date Range: 8/25/05 - 10/22/14
 
SHARE

PRINT THIS DATA

[ ← Previous Day ]
WEATHER ALMANAC - JULY 20, 2014
[ Next Day → ]
[ °C ]   °F
Weather ElementAverageHighLow
Temperature80.7 °F89.2 °F (11:35 am)73.6 °F (8:35 pm)
Dewpoint75.5 °F81.3 °F (9:35 am)72.3 °F (12:55 pm)
Humidity86.1 %100 % (12:15 am)59 % (4:55 pm)
Barometer30.00 in30.05 in (12:15 am)29.96 in (2:35 am)
Wind Speed2.1 mph6.9 mph (9:55 am)
Weather ElementAverage
Visibility7.8 mi
Wind DirectionESE (107.7 °)

Weather ElementTotal
Precipitation0.91 in
Cooling Degree Days16.4 (Base 65)
Growing Degree Days31.4 (Base 50)
Averaged from 71 records on July 20, 2014
WEATHER CONDITIONS BREAKOUT
WIND DIRECTION BREAKOUT
WEATHER BY HOUR - JULY 20, 2014
[ °C ]   °F
Local TimeTemperatureDewpointHumidityBarometerVisibilityWind DirectionWind SpeedGust SpeedPrecipitationEventsConditions
12:15 AM76.1 °F76.1 °F100 %30.00 in10.0 miNE (50°)3.5 mph0.01 inOvercast
12:35 AM76.1 °F76.1 °F100 %30.01 in10.0 miNE (40°)3.5 mph0.02 inOvercast
12:55 AM75.7 °F75.7 °F100 %30.01 in10.0 miNNE (20°)3.5 mph0.02 inOvercast
1:15 AM75.7 °F75.7 °F100 %30.00 in10.0 miCalm0.01 inOvercast
1:35 AM75.7 °F75.7 °F100 %30.00 in10.0 miNE (50°)4.6 mph0.02 inOvercast
1:55 AM75.6 °F75.6 °F100 %30.00 in10.0 miCalm0.02 inOvercast
2:15 AM75.6 °F75.6 °F100 %29.99 in7.0 miNNE (20°)3.5 mphOvercast
2:35 AM75.4 °F75.4 °F100 %29.99 in7.0 miCalm0.01 inOvercast
2:55 AM75.2 °F75.2 °F100 %29.99 in7.0 miCalm0.01 inOvercast
3:15 AM75.2 °F75.2 °F100 %29.99 in7.0 miCalmOvercast
3:35 AM75.2 °F75.2 °F100 %29.99 in7.0 miCalm0.01 inOvercast
3:55 AM74.7 °F74.7 °F100 %29.99 in7.0 miCalm0.01 inMostly Cloudy
4:15 AM74.3 °F74.3 °F100 %29.99 in5.0 miNorth (360°)3.5 mph0.01 inScattered Clouds
4:35 AM73.9 °F73.9 °F100 %29.99 in5.0 miCalm0.01 inMostly Cloudy
4:55 AM73.6 °F73.6 °F100 %30.00 in5.0 miCalm0.02 inMostly Cloudy
5:15 AM73.8 °F73.8 °F100 %30.00 in4.0 miCalm0.01 inThunderstormMostly Cloudy
5:35 AM73.8 °F73.8 °F100 %30.00 in4.0 miNorth (10°)3.5 mph0.01 inThunderstormOvercast
5:55 AM73.9 °F73.9 °F100 %30.01 in4.0 miCalm0.02 inThunderstormOvercast
6:15 AM74.3 °F74.3 °F100 %30.01 in5.0 miCalmThunderstormOvercast
6:35 AM74.3 °F74.3 °F100 %30.01 in4.0 miNorth (10°)3.5 mph0.01 inOvercast
6:55 AM74.3 °F74.3 °F100 %30.02 in3.0 miNE (40°)3.5 mph0.02 inOvercast
7:15 AM74.3 °F74.3 °F100 %30.02 in4.0 miNorth (360°)3.5 mphThunderstormOvercast
7:35 AM74.5 °F74.5 °F100 %30.02 in4.0 miNorth (350°)4.6 mph0.01 inOvercast
7:55 AM74.7 °F74.7 °F100 %30.03 in4.0 miNorth (360°)3.5 mph0.01 inOvercast
8:15 AM75.2 °F75.2 °F100 %30.03 in4.0 miNNW (340°)4.6 mph0.01 inOvercast
8:35 AM75.2 °F75.2 °F100 %30.03 in4.0 miNorth (10°)6.9 mph0.02 inOvercast
8:55 AM75.7 °F75.7 °F100 %30.03 in4.0 miNorth (360°)4.6 mph0.02 inOvercast
9:35 AM78.4 °F78.4 °F100 %30.03 in5.0 miENE (70°)3.5 mph0.02 inMostly Cloudy
9:55 AM79.0 °F79.0 °F100 %30.02 in7.0 miNorth (10°)3.5 mph0.02 inClear
10:15 AM80.2 °F79.3 °F97 %30.03 in7.0 miCalmScattered Clouds
10:35 AM81.1 °F79.5 °F95 %30.04 in10.0 miCalm0.01 inScattered Clouds
10:55 AM82.4 °F74.7 °F77 %30.05 in7.0 miCalm0.02 inMostly Cloudy
11:15 AM82.4 °F74.5 °F77 %30.04 in5.0 miEast (90°)3.5 mph0.01 inHaze
11:35 AM83.3 °F75.2 °F76 %30.04 in7.0 miNE (40°)3.5 mph0.02 inMostly Cloudy
11:55 AM83.5 °F74.3 °F74 %30.03 in10.0 miNNW (340°)3.5 mph0.03 inScattered Clouds
12:15 PM84.4 °F74.8 °F73 %30.03 in10.0 miCalm0.01 inScattered Clouds
12:35 PM85.1 °F74.5 °F70 %30.02 in7.0 miNNE (30°)3.5 mph0.02 inScattered Clouds
12:55 PM85.8 °F74.1 °F68 %30.02 in10.0 miCalm0.03 inMostly Cloudy
1:15 PM86.0 °F74.1 °F68 %30.01 in10.0 miNNW (330°)3.5 mphMostly Cloudy
1:35 PM86.7 °F74.7 °F67 %30.01 in7.0 miCalm0.01 inMostly Cloudy
1:55 PM87.3 °F74.3 °F65 %30.00 in10.0 miNW (320°)3.5 mph0.02 inScattered Clouds
2:15 PM87.4 °F73.8 °F64 %30.00 in10.0 miNW (320°)3.5 mph0.01 inClear
2:35 PM88.0 °F74.5 °F64 %29.99 in10.0 miNorth (360°)3.5 mph0.02 inScattered Clouds
2:55 PM87.8 °F74.8 °F65 %29.98 in10.0 miNorth (10°)3.5 mph0.02 inMostly Cloudy
3:15 PM88.7 °F73.6 °F61 %29.98 in10.0 miNorth (360°)3.5 mph0.01 inScattered Clouds
3:35 PM89.2 °F73.6 °F60 %29.98 in10.0 miNW (310°)3.5 mph0.02 inMostly Cloudy
3:55 PM88.7 °F73.6 °F61 %29.98 in10.0 miNNW (340°)4.6 mph0.02 inMostly Cloudy
4:15 PM88.7 °F72.7 °F59 %29.98 in10.0 miNNW (340°)3.5 mphScattered Clouds
4:35 PM89.1 °F73.2 °F59 %29.98 in10.0 miNNW (330°)4.6 mph0.01 inScattered Clouds
4:55 PM88.7 °F73.0 °F60 %29.98 in10.0 miNE (40°)4.6 mph0.02 inScattered Clouds
5:15 PM88.7 °F72.5 °F59 %29.98 in10.0 miCalm0.01 inClear
5:35 PM88.9 °F73.2 °F60 %29.97 in10.0 miNorth (350°)3.5 mph0.02 inScattered Clouds
5:55 PM88.3 °F73.2 °F61 %29.96 in10.0 miNNW (340°)3.5 mph0.02 inClear
6:15 PM88.2 °F72.3 °F59 %29.96 in7.0 miCalmClear
6:35 PM87.8 °F72.9 °F61 %29.96 in10.0 miCalmClear
6:55 PM86.0 °F74.5 °F68 %29.96 in10.0 miCalm0.01 inClear
7:15 PM86.0 °F75.2 °F70 %29.97 in10.0 miCalm0.01 inScattered Clouds
7:35 PM84.6 °F76.1 °F76 %29.97 in7.0 miSouth (170°)3.5 mph0.01 inScattered Clouds
7:55 PM83.1 °F76.5 °F80 %29.97 in7.0 miCalm0.02 inScattered Clouds
8:15 PM82.8 °F77.0 °F83 %29.97 in10.0 miSSE (160°)3.5 mphScattered Clouds
8:35 PM82.4 °F77.0 °F84 %29.97 in10.0 miSSE (160°)3.5 mph0.01 inScattered Clouds
8:55 PM81.7 °F78.1 °F89 %29.98 in10.0 miCalm0.01 inScattered Clouds
9:15 PM81.3 °F81.3 °F100 %29.98 in10.0 miCalm0.01 inScattered Clouds
9:35 PM81.1 °F81.1 °F100 %29.98 in10.0 miCalm0.01 inClear
9:55 PM80.8 °F80.8 °F100 %29.98 in10.0 miSE (140°)3.5 mph0.02 inClear
10:15 PM80.8 °F80.8 °F100 %29.99 in10.0 miSSE (150°)4.6 mph0.01 inScattered Clouds
10:35 PM80.6 °F80.6 °F100 %29.99 in10.0 miSSE (160°)3.5 mph0.02 inScattered Clouds
10:55 PM79.3 °F79.3 °F100 %29.99 in10.0 miCalm0.02 inClear
11:15 PM78.1 °F78.1 °F100 %29.99 in7.0 miCalmClear
11:35 PM77.4 °F77.4 °F100 %30.00 in5.0 miCalm0.01 inClear
11:55 PM77.0 °F77.0 °F100 %30.00 in4.0 miCalm0.02 inClear
Hourly data recorded from KORG, located miles away from Mauriceville, Texas







STORIES FROM OUR PARTNERS